Regional Weather Roundup
Issued by NWS Grand Forks, ND

Home | Current Version | Previous Version | Text Only | Print | Product List | Glossary On
Versions: 1 2 3 4 5 6 7 8 9 10 11 12 13 14 15 16 17 18 19 20 21 22 23 24 25 26 27 28 29 30 31 32 33 34 35 36 37 38 39 40 41 42 43 44 45 46 47 48 49 50
000
ASUS43 KFGF 230431
RWRFGF
PRAIRIE TO PINES  WEATHER ROUNDUP
NATIONAL WEATHER SERVICE EASTERN NORTH DAKOTA/GRAND FORKS ND
1000 PM CST MON DEC 22 2014

 **SATELLITE DATA USED TO AUGMENT SKY COVER AT AUTOMATED STATIONS**
 *****  WEATHER ACROSS EASTERN NORTH DAKOTA  *****

CITY           SKY/WX    TMP DP  RH WIND       PRES   REMARKS
GRAND FORKS    DRIZZLE   36  34  93 NE7       29.72S FOG
GRAND FRKS AFB CLOUDY    34  34 100 NE7       29.73R FOG
DEVILS LAKE    CLOUDY    34  30  86 N13       29.73R WCI  25
FARGO          LGT RAIN  35  33  92 NE8       29.68R
WAHPETON ARPT  CLOUDY    32  32 100 NE7       29.65R
$$

 ***** WEATHER ACROSS CENTRAL AND WESTERN NORTH DAKOTA  *****

CITY           SKY/WX    TMP DP  RH WIND       PRES   REMARKS
BISMARCK       LGT SNOW  30  28  92 N16G22    29.73R FOG     WCI  19
MINOT          CLOUDY    30  28  92 N16       29.81R FOG     WCI  19
JAMESTOWN      CLOUDY    34  33  96 NE13      29.66R FOG     WCI  25
MINOT AFB      MIX PCPN  30  30 100 N13       29.82R WCI  20
GARRISON         N/A     29  28  96 N18       29.78R WCI  16
WILLISTON      CLOUDY    26  21  81 N15       29.90R WCI  14
DICKINSON      LGT SNOW  25  21  85 NW15      29.79R FOG     WCI  13
HETTINGER      LGT SNOW  24  20  84 NW22G29   29.78R FOG     WCI   9
$$

 *****  OTHER AIRPORT OBSERVATIONS IN OUR AREA  *****

CITY           SKY/WX    TMP DP  RH WIND       PRES   REMARKS
WALHALLA       MIX PCPN  32  32 100 N13       29.79R WCI  22
GRAFTON AIRPOR NOT AVBL
VALLEY CITY AR CLOUDY    32  32 100 E9        29.67R FOG     WCI  24
CANDO          CLOUDY    32  32 100 N20       29.77R FOG     WCI  20
CAVALIER APRT  LGT SNOW  32  32 100 N9        29.77R VSB 1   WCI  24
GWINNER        CLOUDY    34  34 100 NE10      29.64R
ROLLA          NOT AVBL
 ***** THE ABOVE OBSERVATIONS ARE NON NWS ARE NOT QUALITY
       CONTROLLED AND MAY MIS-REPORT RAIN FOR SNOW...
$$

  *****  WEATHER ACROSS NORTHERN MINNESOTA  *****

CITY           SKY/WX    TMP DP  RH WIND       PRES   REMARKS
FLAG ISLAND    CLOUDY    34  34 100 E3        29.76S FOG
WARROAD        CLOUDY    34  28  80 NE7       29.76R FOG
ROSEAU         CLOUDY    34  30  86 NE6       29.75R FOG
HALLOCK        DRIZZLE   36  34  93 NE6       29.76R
THF RVR FALLS  CLOUDY    36  34  93 NE8       29.73R
BAUDETTE       CLOUDY    33  32  96 E6        29.74R
WASKISH        LGT SNOW  34  34 100 CALM      29.74R
CROOKSTON      CLOUDY    36  34  93 NE5       29.73R
STEPHEN NDAWN    N/A     34  34 100 NE5         N/A
GREENBUSH NDAW   N/A     34  34 100 NE7         N/A
$$
  *****  WEATHER ACROSS CENTRAL AND WEST MINNESOTA  *****

CITY           SKY/WX    TMP DP  RH WIND       PRES   REMARKS
FOSSTON        MIX PCPN  32  32 100 E5        29.71R
BEMIDJI        LGT SNOW  32  32  99 E6        29.70R
PARK RAPIDS    LGT SNOW  34  32  92 E6        29.67R FOG
ELBOW LAKE     LGT SNOW  32  32 100 E9        29.63R WCI  24
WADENA         LGT SNOW  32  30  93 E7        29.65R
DETROIT LAKES  DRIZZLE   34  32  93 E5        29.67R
MOORHEAD       LGT RAIN  36  36 100 NE7       29.69R
FERGUS FALLS   DRIZZLE   34  34 100 E7        29.67R
MORRIS MN      MIX PCPN  34  34 100 E12       29.61R
STAPLES        LGT RAIN  32  32 100 CALM      29.66R
$$
  *****  WEATHER ELSEWHERE ACROSS MINNESOTA  *****

CITY           SKY/WX    TMP DP  RH WIND       PRES   REMARKS
DULUTH         CLOUDY    34  32  92 E9        29.71S FOG
INTRNTL FALLS  CLOUDY    33  32  96 NE5       29.76R
ELY            CLOUDY    34  32  93 E3        29.76R FOG
CLOQUET        CLOUDY    34  34 100 E6        29.71S FOG
WHEATON        MIX PCPN  30  30 100 NE7       29.65R WCI  23
BRAINERD       MIX PCPN  34  33  96 E6        29.67R FOG
HIBBING        CLOUDY    35  32  88 E7        29.73R FOG
ALEXANDRIA     LGT SNOW  33  32  96 E10       29.63R FOG     WCI  25
SAINT CLOUD    MIX PCPN  37  33  85 E8        29.63S FOG
MINNEAPOLIS    LGT RAIN  35  33  92 E13       29.62R FOG
$$

  *****  WEATHER ACROSS SOUTH DAKOTA  *****

CITY           SKY/WX    TMP DP  RH WIND       PRES   REMARKS
SIOUX FALLS    LGT RAIN  35  34  96 E10       29.49R
BROOKINGS      NOT AVBL
WATERTOWN      CLOUDY    33  32  96 E9G20     29.53R
HURON          FOG       32  32 100 N5        29.52R VSB 3/4
SISSETON         N/A     32  32 100 E8        29.60R WCI  25
ABERDEEN       LGT SNOW  33  32  96 NE10      29.59R FOG     WCI  25
MITCHELL       FLURRIES  33  33 100 NW10      29.52R WCI  25
PIERRE         LGT SNOW  31  29  92 NW22      29.59R FOG     WCI  18
MOBRIDGE       LGT SNOW  31  28  89 N21G29    29.62R FOG     WCI  18
RAPID CITY     SNOW      28  25  88 N39G54    29.71R VSB 1/2 WCI  10
$$

  *****  SOME WEATHER IN NEARBY STATES *****

CITY           SKY/WX    TMP DP  RH WIND       PRES   REMARKS
GLASGOW MT     CLOUDY    29  23  78 NW15      29.99R WCI  18
GREAT FALLS MT MOCLDY    28  23  81 SW9       30.12R WCI  19
CHEYENNE WY    MOCLDY    24  16  71 NW15G24   29.77S WCI  11
SCOTTSBLUFF NE CLOUDY    33  25  72 NW30G40   29.74R WCI  19
OMAHA NE       LGT RAIN  38  36  92 NW12      29.46F
DES MOINES IA  DRIZZLE   40  37  89 E7        29.44F FOG
DAVENPORT IA   LGT RAIN  40  38  93 E10       29.51F FOG
CHICAGO IL     LGT RAIN  40  39  97 SE14      29.62F FOG
EAU CLAIRE WI  LGT SNOW  33  31  92 NE12      29.64F FOG     WCI  24
LA CROSSE WI   CLOUDY    36  33  89 E10       29.59F
$$

  *****  SOME NATIONAL WEATHER *****

CITY           SKY/WX    TMP DP  RH WIND       PRES   REMARKS
LA GUARDIA NY  LGT RAIN  43  43 100 NE10      30.19F FOG
RALEIGH NC     DRZL/FOG  37  35  92 N5        30.06S VSB 1/4
ATLANTA GA     FOG       43  42  97 E13       29.92S VSB 1
NEW ORLEANS LA CLOUDY    70  66  87 S9        29.74S FOG
OKLAHOMA CITY  CLOUDY    43  34  70 NW7       29.66F
ALBUQUERQUE NM MOCLDY    45  29  53 NW21      29.78R
SALT LAKE CITY CLOUDY    37  31  78 NW21      30.15R
LOS ANGELES CA PTCLDY    57  57 100 CALM      29.99R FOG
BOISE ID       CLEAR     37  27  67 W7        30.32R
SEATTLE WA     CLOUDY    46  39  76 SE3       30.35F
$$

*** WEATHER ACROSS MANITOBA...SASKATCHEWAN AND ONTARIO ***
                ***ONTARIO***

CITY           SKY/WX    TMP DP  RH WIND       PRES   REMARKS
GERALDTON      LGT SNOW N/A N/A N/A SE5         N/A  FOG
THUNDER BAY    CLOUDY    36  36 100 E9        29.85S FOG
SIOUX LOOKOUT  LGT SNOW  32  32 100 E3        29.80R
TORONTO        CLOUDY    36  30  80 E6        30.04
BIG TROUT LK   CLOUDY    28  28 100 VRB2      29.92R FOG
PICKLE LAKE    NOT AVBL
DRYDEN         SNOW      32  32 100 NE5       29.79R VSB 1/2
KENORA         SNOW      32  32 100 NE5       29.77  VSB 3/8
$$
                *** MANITOBA***

CITY           SKY/WX    TMP DP  RH WIND       PRES   REMARKS
BRANDON        CLOUDY    28  28 100 NE9       29.86  WCI  20
DAUPHIN        LGT SNOW  28  28 100 N10       29.93R WCI  19
ISLAND LAKE    LGT SNOW  25  23  93 N7        29.95  FOG     WCI  17
PILOT MOUND      N/A     30  30 100 N14         N/A  WCI  20
THE PAS        FLURRIES  21  19  93 N5        29.99  WCI  15
THOMPSON       PTCLDY     3   0  85 N5        30.05R WCI  -6
WINNIPEG       DRZL/FOG  32  32 100 N14       29.82R VSB 1/2 WCI  22
LYNN LAKE      LGT SNOW   9   7  92 CALM      30.04R
CHURCHILL      LGT SNOW  12  10  92 N16       30.12  WCI  -4
GILLAM         FLURRIES  16  14  93 N8        30.05  WCI   5
$$
                ***SASKATCHEWAN***

CITY           SKY/WX    TMP DP  RH WIND       PRES   REMARKS
ESTEVAN        FLURRIES  27  25  93 NW13      29.89R WCI  16
KINDERSLEY     CLOUDY    27  25  93 NW9       30.01  WCI  17
LLOYDMINSTER   CLOUDY    25  25 100 NW10      29.99  WCI  15
PRINCE ALBERT  FLURRIES  21  21 100 W3        29.99R
REGINA         CLOUDY    21  19  93 NW13      29.97R WCI   9
YORKTON        CLOUDY    25  25 100 N8        29.94R WCI  16
N. BATTLEFORD  CLOUDY    23  23 100 W10       30.02R WCI  12
LA RONGE       FLURRIES  19  18  93 N2        29.99
SASKATOON      FLURRIES  21  19  93 W6        30.01R WCI  14
SWIFT CURRENT  CLOUDY    23  23 100 NW12      29.99R WCI  12
$$
NOTE: THESE ARE AUTOMATED STATIONS WITH LIMITED QUALITY CONTROL
      "FAIR" INDICATES FEW OR NO CLOUDS BELOW 12,000 FEET WITH NO
      SIGNIFICANT WEATHER AND/OR OBSTRUCTIONS TO VISIBILITY.
      SKY/WX - SKY CONDITION AND SIGNIFICANT WEATHER.
      TMP - AIR TEMPERATURE.    DP   - DEWPOINT TEMPERATURE.
      RH  - RELATIVE HUMIDITY.  PRES - PRESSURE.
      HX  - HEAT INDEX.         WCI  - WIND CHILL INDEX.
$


USA.gov is the U.S. government's official web portal to all federal, state and local government web resources and services.